Location: Baumgarten
(49.0970°N, 12.7493°E)
Time: 17:33:26
(UTC+00:00)

Cosmos 405 - Pass Details

Date: 05 July 2020
Orbit: 450 x 465 km, 81.3° (Epoch: 13 August)

Event Time Altitude Azimuth Distance (km) Brightness Sun altitude
Rises 23:22:44 0° 347° (NNW) 2,511 8.1 -18.2°
Reaches altitude 10° 23:24:50 10° 346° (NNW) 1,628 6.8 -18.2°
Maximum altitude 23:28:23 76° 261° (W) 483 2.9 -18.2°
Enters shadow 23:29:04 54° 190° (S) 567 3.0 -18.2°
